RH
52 50 52 56 56 57 55 54 59 65 65 66 68 70 73 77 81 83 89 84 83 82
53 56 56 60 61 58 62 57 62 67 70 71 75 82 82 82 82 86 87 88 85 80
54 59 62 65 67 67 68 69 71 72 72 74 72 74 78 84 84 86 87 86 85 80
62 66 67 68 68 71 75 74 76 79 82 83 82 77 82 85 84 86 87 84 84 83
70 68 70 73 74 78 80 80 78 76 76 81 82 80 82 85 82 84 86 86 86 86
72 72 74 76 76 72 74 74 73 75 80 84 87 89 90 91 91 91 93 93 93 90
75 76 78 76 77 78 77 80 82 86 89 89 82 85 85 84 89 95 94 90 91 89
78 79 80 81 80 81 82 80 88 94 92 90 86 86 90 88 88 96 96 96 95 96
81 80 83 82 83 84 85 88 94 93 90 88 92 91 91 90 92 96 97 97 96 96
86 100 91 83 83 88 97 97 96 92 94 98 96 93 88 90 95 97 97 97 97 96
90 100 100 100 100 100 100 100 100 100 100 100 100 90 92 93 100 100 100 100 98 98
88 100 100 100 100 100 100 100 100 100 100 100 100 93 90 95 100 100 100 100 100 100
84 84 96 100 100 100 100 100 100 100 100 96 99 92 88 98 98 100 99 100 100 98
82 84 91 100 100 100 100 100 100 100 100 100 99 96 88 92 98 98 98 98 98 99
Wind_Speed
4 1 2 3 5 6 7 9 12 12 13 15 16 15 15 12 12 14 13 18 14 10
2 2 4 7 8 8 10 10 12 14 14 14 13 13 15 12 14 13 13 13 15 15
3 4 6 8 10 12 12 12 13 13 14 15 15 15 13 12 13 14 12 11 15 17
4 6 8 9 10 11 13 13 14 13 13 13 15 16 13 13 14 15 15 16 17 19
5 8 9 10 11 11 12 12 13 13 14 13 13 16 15 16 15 17 17 17 18 18
7 8 9 10 10 12 13 14 14 14 14 14 13 14 15 15 13 14 13 14 17 19
8 8 9 10 11 12 13 14 13 12 12 13 14 13 14 14 13 13 13 15 16 18
7 8 9 10 11 10 10 12 11 12 11 13 12 8 12 13 14 14 15 16 17 18
6 8 9 10 11 10 10 10 11 11 11 12 8 16 19 17 14 15 15 16 17 17
7 5 8 10 10 10 10 10 10 10 11 11 12 18 20 21 13 14 14 15 14 15
6 5 5 6 7 7 7 8 7 8 9 9 9 19 20 21 13 12 13 12 14 15
6 5 6 7 8 7 6 6 7 7 9 9 10 19 20 16 10 10 11 10 12 14
6 7 7 6 7 5 5 7 6 6 6 10 10 15 19 15 7 8 8 10 11 19
5 7 6 6 5 4 6 6 5 5 5 6 9 10 19 20 7 7 7 8 9 8
Wind_Direction
145 165 246 274 292 291 293 293 300 301 302 296 292 288 286 280 270 267 262 256 250 250
188 307 305 303 301 301 298 300 300 296 293 284 285 279 281 275 269 264 261 262 262 259
336 309 301 296 296 304 303 302 301 299 294 291 288 278 273 270 272 275 275 270 265 262
311 313 309 307 310 310 308 311 308 303 294 286 284 283 275 270 271 264 263 262 261 265
320 321 319 316 311 311 306 302 300 299 297 294 299 294 289 283 276 273 269 267 265 264
322 313 308 304 302 310 309 307 306 302 298 294 288 288 283 276 284 284 282 281 276 270
309 314 310 313 319 313 311 310 303 296 295 294 298 298 299 291 290 287 283 282 278 273
315 316 324 318 312 306 305 304 303 301 303 307 307 301 308 301 296 291 287 281 274 267
327 317 311 311 313 316 311 307 310 312 320 319 316 311 316 313 308 298 285 282 278 276
303 278 308 322 321 316 311 317 320 327 326 321 322 319 322 319 303 296 287 283 283 282
319 295 299 303 305 302 301 321 327 330 324 319 318 321 326 317 300 295 289 290 290 286
311 316 312 315 312 309 311 327 335 331 317 322 321 330 333 324 310 307 312 312 310 325
330 323 313 309 306 297 311 330 332 321 321 323 323 329 343 353 324 331 335 334 343 6
327 313 306 298 287 310 333 333 324 332 324 315 325 346 4 12 357 357 346 351 357 7